Regional Weather Roundup
Issued by NWS Goodland, KS

Home | Current Version | Previous Version | Graphics & Text | Print | Product List | Glossary On
Versions: 1 2 3 4 5 6 7 8 9 10 11 12 13 14 15 16 17 18 19 20 21 22 23 24 25 26 27 28 29 30 31 32 33 34 35 36 37 38 39 40 41 42 43 44 45 46 47 48 49 50
000
ASUS43 KGLD 052208
RWRGLD

GOODLAND FORECAST AREA HOURLY WEATHER ROUNDUP
NATIONAL WEATHER SERVICE GOODLAND KS
300 PM MST THU MAR 05 2015

...OFFICIAL OBSERVATIONS...

CITY           SKY/WX    TMP DP  RH WIND       PRES   REMARKS
GOODLAND KS    MOSUNNY   46  11  24 SW15      30.24S
HILL CITY KS   SUNNY     48   1  14 SW10      30.28F
IMPERIAL NEB     N/A     46  12  25 W15       30.19F
MCCOOK NEB     PTSUNNY   51   9  18 SW13      30.20F
AKRON CO       CLOUDY    44   5  20 CALM      30.20S
BURLINGTON CO  MOSUNNY   43  13  29 SW16      30.23F
LIMON CO       MOSUNNY   30  20  66 SE8       30.21S
$$

...UNOFFICIAL OBSERVATIONS...

CITY           SKY/WX    TMP DP  RH WIND       PRES   REMARKS
COLBY KS       SUNNY     48  18  29 SW10      30.25S
GOVE KS          N/A     48  32  54 MISG        N/A
NORTON KS      SUNNY     48  -4  11 SW12      30.24S
SHARON SPRINGS   N/A     45  19  34 SW7         N/A
YUMA CO          N/A     45  10  23 N10         N/A
$$



USA.gov is the U.S. government's official web portal to all federal, state and local government web resources and services.